sat.trackr.live / text

‹ back to catalog

STARLINK-11282 [DTC]

NORAD 60992 · 2024-158C

PAYLOAD ACTIVE UNKNOWN

§ Identity

Operator
Country
US
Launch date
2024-09-05
Launch site
AFETR
Launch vehicle
Mass (kg)
RCS (m²)

Purposes: comms

External: N2YO · Heavens-Above · Gunter

§ Orbital elements

Epoch: 2026-05-24T19:52:49.166112Z

Period
91.74 min
Inclination
53.1588°
Eccentricity
0.0001138
Mean motion
15.69715709 rev/d
Perigee alt
358.9 km
Apogee alt
360.5 km
Semi-major
6,737.8 km
B*
1.7047e-5
RAAN
265.8886°
Arg perigee
64.6749°
Mean anomaly
295.4387°
Rev number
9,955

§ Raw data

STARLINK-11282 [DTC]1 60992U 24158C   26144.82834683  .00001477  00000+0  17047-4 0  99962 60992  53.1588 265.8886 0001138  64.6749 295.4387 15.69715709 99556

JSON: /api/v1/satellites/60992 · /tle

For live sub-satellite position, see the globe view (requires WebGL).

§ Visibility from observer

Set your observer location to see the next 7 days of passes ≥ 10°. The values pass through the URL so the page stays shareable.

No JS? Fill the form by hand. The geolocation button needs JavaScript.